This demonstration page uses our WeatherBlox Daily Observations layout. Learn more.

Left ArrowRight Arrow

34.74481, -87.66753

Hourly Observations for May 11, 2020

Temp ( °F °C ) Dew Point ( °F °C ) Humidity (%) Winds ( mph kmh ) Pressure ( in mb ) Visibility ( mi km ) Precip ( " mm )
12:53 am 00:53 Cloudy 59 15 42 5.6 54 54 NNE 9 15 30.19 1022 10 16 0.00 0.00
1:53 am 01:53 Mostly Clear 56 13.3 39 3.9 53 53 NE 6 9 30.21 1023 10 16 0.00 0.00
2:53 am 02:53 Cloudy 54 12.2 39 3.9 57 57 NE 5 7 30.21 1023 10 16 0.00 0.00
3:53 am 03:53 Cloudy 53 11.7 38 3.3 57 57 ENE 5 7 30.22 1023 10 16 0.00 0.00
4:53 am 04:53 Mostly Cloudy 50 10 40 4.4 68 68 Calm 30.22 1024 10 16 0.00 0.00
5:53 am 05:53 Mostly Sunny 48 8.9 41 5 77 77 Calm 30.24 1024 10 16 0.00 0.00
6:53 am 06:53 Sunny 52 11.1 44 6.7 75 75 NNW 3 6 30.27 1025 10 16 0.00 0.00
7:53 am 07:53 Sunny 57 13.9 41 5 55 55 N 5 7 30.28 1025 10 16 0.00 0.00
8:53 am 08:53 Sunny 59 15 37 2.8 44 44 N 7 11 30.29 1026 10 16 0.00 0.00
9:53 am 09:53 Sunny 61 16.1 34 1.1 36 36 NNE 7 11 30.29 1026 10 16 0.00 0.00
10:53 am 10:53 Sunny 63 17.2 32 0 31 31 NNW 9 15 30.29 1026 10 16 0.00 0.00
11:53 am 11:53 Sunny 64 17.8 32 0 30 30 VRB 5 7 30.25 1025 10 16 0.00 0.00
12:53 pm 12:53 Sunny 66 18.9 32 0 28 28 VRB 3 6 30.25 1024 10 16 0.00 0.00
1:53 pm 13:53 Sunny 68 20 34 1.1 28 28 VRB 7 11 30.24 1024 10 16 0.00 0.00
2:53 pm 14:53 Sunny 66 18.9 33 0.6 29 29 NW 8 13 30.24 1024 10 16 0.00 0.00
3:53 pm 15:53 Sunny 67 19.4 34 1.1 30 30 NW 14 22 30.21 1023 10 16 0.00 0.00
4:53 pm 16:53 Sunny 68 20 36 2.2 31 31 WNW 9 15 30.20 1023 10 16 0.00 0.00
5:53 pm 17:53 Sunny 67 19.4 35 1.7 31 31 NW 6 9 30.20 1023 10 16 0.00 0.00
6:53 pm 18:53 Sunny 63 17.2 35 1.7 35 35 NW 7 11 30.19 1023 10 16 0.00 0.00
7:53 pm 19:53 Mostly Cloudy 60 15.6 36 2.2 41 41 NW 5 7 30.19 1022 10 16 0.00 0.00
8:53 pm 20:53 Mostly Cloudy 59 15 39 3.9 48 48 Calm 30.19 1022 10 16 0.00 0.00
9:53 pm 21:53 Clear 57 13.9 38 3.3 49 49 N 3 6 30.19 1022 10 16 0.00 0.00
10:53 pm 22:53 Mostly Clear 57 13.9 36 2.2 45 45 NNE 8 13 30.20 1023 10 16 0.00 0.00
11:53 pm 23:53 Cloudy 56 13.3 37 2.8 49 49 N 5 7 30.21 1023 10 16 0.00 0.00

Powered by AerisWeather